Probability
32 40 50 52 47 41 35 31 25 20 14 10 6 5 6 6 5 4 2 0 1 2 2 1 0 0 0 0 0 0 0 0 0 0 0 0 0 0 0 0 1 2 2
41 47 55 56 52 46 41 34 26 20 14 9 7 8 8 6 4 3 2 1 1 2 2 1 0 0 0 0 0 0 0 0 0 0 0 0 0 0 0 0 0 1 1
50 54 58 60 57 52 46 39 30 21 15 12 11 12 11 6 3 2 2 1 1 1 1 1 0 0 0 0 0 0 0 0 0 0 0 0 0 0 0 0 0 0 0
55 56 58 60 59 54 48 42 33 24 18 15 14 15 14 9 4 2 2 2 1 2 2 2 1 0 0 0 0 0 0 0 0 0 0 0 0 0 0 0 0 0 0
56 57 57 58 58 55 48 42 35 28 23 17 14 15 15 12 7 4 3 3 2 1 2 2 1 0 0 0 0 0 0 0 0 0 1 0 0 0 0 0 0 0 0
55 54 54 53 54 53 47 41 36 32 27 21 17 15 14 13 11 7 5 3 2 1 1 1 0 0 0 0 1 1 0 0 0 0 0 0 0 0 0 0 0 0 0
49 48 47 49 51 50 46 41 38 33 27 23 19 15 12 11 10 7 5 3 1 0 0 0 0 0 0 1 2 2 1 0 0 0 0 0 0 0 0 0 0 0 0
40 41 43 45 48 49 46 43 40 34 27 23 19 15 11 8 6 6 4 2 1 0 0 0 0 0 1 2 3 3 2 1 0 0 0 0 0 0 0 0 0 0 0
34 36 38 40 42 44 44 43 41 36 30 25 20 15 10 7 6 6 5 3 1 1 1 1 1 1 2 3 4 4 3 2 1 1 1 1 1 1 0 0 0 0 0
34 33 33 34 35 35 37 40 40 37 34 28 22 16 11 9 9 9 8 5 4 4 5 4 4 4 4 4 5 5 4 3 3 2 2 2 2 2 1 0 0 0 0
34 33 32 30 30 30 33 38 39 37 35 31 23 16 13 12 13 12 10 7 6 7 8 7 6 5 5 6 6 6 4 3 3 3 3 3 3 3 2 1 0 0 0
33 35 35 34 34 34 34 36 36 36 36 33 26 18 15 15 16 15 11 9 8 8 8 7 5 5 5 6 6 6 5 4 3 3 3 3 3 3 2 1 0 0 0
33 37 42 43 42 41 40 37 36 37 37 35 29 23 20 20 19 16 13 11 9 7 6 4 3 3 4 4 5 6 5 3 3 3 3 3 2 1 1 0 0 0 0
36 40 44 46 45 46 47 45 41 39 39 36 30 27 24 22 20 19 16 12 9 6 4 3 3 3 3 3 4 4 3 2 1 2 2 2 1 0 0 0 0 0 0
44 44 44 44 44 47 54 56 51 46 44 39 33 30 28 25 24 23 19 14 10 6 4 3 3 3 3 3 3 3 2 1 0 1 1 1 0 0 0 0 0 0 0
54 52 50 48 47 50 58 63 59 54 52 47 41 38 36 33 31 28 24 18 11 7 4 3 3 3 3 3 3 3 3 1 0 0 0 0 0 0 0 0 0 0 0
57 56 56 56 54 55 59 62 61 59 59 56 51 48 46 42 38 32 26 21 15 8 5 3 3 3 3 3 3 3 3 2 2 2 1 0 0 0 0 0 0 0 0
55 55 57 60 60 58 59 61 61 63 64 61 58 56 54 49 44 37 29 23 19 13 7 4 3 3 3 3 2 3 3 3 3 3 2 1 0 0 0 0 0 0 0
55 53 55 59 59 56 57 60 62 63 63 62 60 60 58 55 50 42 31 24 20 16 10 5 2 3 3 2 1 1 2 2 2 2 2 1 0 0 0 0 0 0 0
54 53 54 55 53 51 51 56 59 58 57 57 58 58 57 55 49 41 33 25 20 16 11 5 3 4 4 3 1 0 1 1 1 1 1 0 0 0 0 0 0 0 0
50 50 52 52 49 48 49 52 53 52 51 52 54 54 53 50 44 38 33 28 24 20 14 9 6 6 7 5 3 1 0 0 1 1 0 0 0 0 0 0 0 0 0
50 49 50 50 49 49 50 49 48 48 49 50 50 51 50 46 40 36 34 32 30 27 22 15 10 9 9 8 5 2 0 1 2 2 1 0 0 0 0 0 0 0 0
48 48 49 50 49 49 48 46 44 44 45 45 45 45 45 42 39 37 34 32 32 32 27 21 15 12 12 10 6 3 1 1 2 2 1 0 0 0 0 0 0 0 0
42 41 43 46 46 45 43 40 38 38 38 38 37 36 37 38 38 37 33 31 31 30 26 22 19 16 14 12 8 5 1 0 1 1 1 0 0 0 0 0 0 0 0
32 31 32 35 37 38 36 34 32 31 32 32 29 28 30 33 35 33 29 26 24 21 18 16 15 15 13 11 8 4 1 0 0 0 0 0 0 0 0 0 0 0 0
25 24 24 26 29 31 32 30 28 29 29 29 26 25 27 29 30 28 24 19 15 12 10 9 10 10 10 9 6 2 1 0 0 0 0 0 0 0 0 0 0 0 0
Wind_Speed
10 10 11 12 10 8 8 9 8 6 5 3 3 2 2 2 2 3 4 4 4 4 4 2 2 2 3 3 3 2 2 1 1 1 1 2 1 1 1 2 3 3 4
9 10 10 10 11 10 9 9 8 7 6 4 3 3 3 2 2 3 3 4 4 4 4 4 3 3 3 3 3 2 2 1 2 2 1 1 3 2 1 1 2 3 2
15 13 12 11 11 11 11 10 9 8 7 5 3 2 2 1 1 1 2 3 4 4 4 4 4 3 3 3 3 3 4 2 1 2 3 3 3 2 2 1 0 1 2
12 12 12 12 12 11 10 9 9 8 7 6 5 5 4 3 3 3 2 3 3 4 4 4 4 4 3 3 4 3 3 3 2 2 2 3 4 2 1 2 1 0 1
14 14 14 13 12 11 10 8 8 7 7 6 6 6 4 3 2 2 3 2 2 3 3 4 4 3 3 3 3 3 3 3 3 3 2 2 1 2 2 2 1 1 1
13 12 11 10 9 9 9 8 8 7 7 7 6 6 6 5 4 3 3 3 2 2 3 3 3 3 3 3 3 3 3 3 3 2 2 3 2 3 3 3 2 2 1
13 12 11 11 11 11 10 9 9 7 7 7 6 6 6 6 6 5 4 4 2 2 3 2 3 3 3 3 3 3 2 3 3 3 2 2 3 3 3 3 2 1 1
11 13 13 13 12 12 11 10 10 8 8 8 7 6 6 4 4 4 4 4 3 3 3 3 3 3 3 3 3 2 3 2 3 3 2 2 2 2 3 3 3 1 1
12 12 12 12 12 12 12 12 11 9 9 8 7 6 6 5 4 4 3 3 3 3 4 4 3 3 3 2 2 2 2 2 2 2 2 2 2 2 2 3 4 4 3
11 11 11 11 11 11 10 10 10 10 9 8 7 6 6 6 5 4 4 3 3 3 3 3 3 3 2 2 2 2 2 1 1 1 1 1 1 1 1 2 2 3 3
12 11 9 9 10 9 10 10 9 8 8 8 7 6 6 5 5 5 5 4 4 3 3 4 3 3 2 2 2 2 2 1 1 1 1 1 1 1 1 1 2 2 2
9 9 9 9 8 9 9 9 9 9 8 8 7 6 6 6 5 5 5 5 4 4 4 3 3 3 2 2 3 2 2 2 1 1 1 1 1 1 1 1 1 1 2
7 7 7 8 9 9 9 9 9 9 8 8 7 6 6 6 6 5 5 4 4 4 4 3 3 3 3 3 3 3 2 2 2 2 2 1 1 1 0 1 1 1 1
8 8 7 7 8 9 9 10 9 9 9 8 8 8 7 7 6 5 5 5 5 4 4 3 3 3 3 3 3 2 2 2 1 1 2 1 2 2 1 2 2 2 2
8 9 9 7 7 7 7 8 9 8 8 9 9 8 7 6 6 5 5 4 4 5 4 3 3 2 2 2 3 2 3 2 2 1 1 1 2 2 2 2 3 3 3
8 7 7 6 6 7 7 7 8 8 9 9 9 7 7 7 6 6 5 4 4 4 4 4 3 3 2 3 4 3 3 2 2 1 1 1 2 2 3 4 4 5 5
6 6 5 5 5 5 6 7 7 7 9 8 8 7 8 7 6 6 5 5 4 3 3 3 4 3 2 3 4 4 3 3 2 2 1 1 1 2 2 3 3 2 3
4 5 4 4 3 2 3 4 4 6 7 8 8 7 8 7 6 6 6 5 4 4 3 3 3 3 2 3 3 3 2 2 2 2 3 3 2 2 3 3 2 2 1
3 3 4 5 5 3 3 4 4 4 5 6 6 7 8 8 7 7 6 5 4 4 3 4 4 3 2 2 3 3 2 2 2 1 2 3 2 2 4 3 2 2 0
3 3 3 4 4 3 3 4 3 4 5 5 5 6 7 8 8 7 6 4 4 4 4 4 4 4 3 3 4 4 2 3 2 1 1 1 2 3 4 3 3 3 1
4 4 4 4 2 2 4 5 4 4 4 4 4 4 5 6 7 5 4 4 4 4 4 4 3 3 3 4 5 5 3 3 3 2 1 1 3 3 4 3 3 4 3
4 5 4 3 2 3 4 3 2 2 2 3 4 4 5 5 5 6 5 5 5 5 4 4 3 1 2 3 4 6 5 5 3 3 2 2 3 3 3 3 3 4 3
3 4 5 3 3 3 4 3 0 1 3 3 2 3 3 4 5 6 6 5 5 4 4 4 3 2 1 2 4 5 6 6 4 3 4 4 3 2 1 2 3 3 2
3 3 4 4 2 2 2 3 1 1 3 3 2 3 3 3 3 3 4 4 5 5 4 5 4 3 3 2 2 2 2 4 3 2 2 3 2 1 1 1 1 1 2
2 3 3 3 2 2 2 2 1 1 2 3 2 2 3 3 3 3 2 3 3 5 5 4 4 5 4 5 7 5 4 4 4 4 2 1 1 1 0 0 1 1 1
3 3 3 3 2 2 2 2 1 2 3 2 2 1 2 2 3 4 2 2 1 2 4 5 4 3 5 6 7 7 6 6 7 5 2 2 2 2 2 2 1 1 2
Wind_Direction
178 169 169 165 161 161 159 160 161 167 157 144 148 152 173 175 179 193 193 184 186 176 164 178 178 173 178 196 190 172 180 199 159 97 5 344 322 265 224 197 186 193 198
167 170 169 168 169 170 168 166 170 170 169 169 166 162 163 180 187 195 194 190 183 179 178 178 184 185 184 194 192 173 167 208 164 143 116 341 341 340 275 210 194 194 194
175 174 172 174 172 175 175 174 174 171 172 166 147 127 106 90 117 185 210 208 189 188 186 183 183 187 180 190 200 183 175 196 217 170 158 169 225 285 320 318 214 186 188
174 173 173 175 179 180 175 169 170 170 172 166 163 165 172 186 203 193 197 209 198 192 190 184 186 188 186 193 207 194 184 173 203 220 203 185 171 173 268 320 321 255 221
177 178 179 180 179 174 171 169 167 170 172 171 171 170 181 189 188 182 189 204 203 196 189 184 182 184 191 197 200 193 190 183 190 199 198 193 181 170 171 241 274 314 273
176 178 177 170 168 167 168 168 168 174 173 172 172 173 180 181 176 190 190 200 201 211 205 186 180 186 195 200 200 195 193 194 197 204 193 180 185 190 178 205 230 243 265
172 171 170 169 170 170 171 171 171 176 177 175 178 182 185 186 191 195 194 190 191 206 218 203 189 192 203 202 194 190 201 196 200 208 210 202 209 185 175 180 211 222 248
172 177 177 173 173 174 173 172 172 176 177 179 183 185 186 188 198 197 189 192 199 207 204 198 197 198 197 196 189 194 211 206 207 216 210 208 218 194 180 174 173 192 245
174 180 180 175 174 174 176 175 176 178 182 182 180 184 185 186 191 191 189 195 204 207 196 191 195 191 186 195 189 194 207 195 204 213 213 218 226 206 196 181 173 171 192
170 177 178 175 174 174 174 175 177 180 182 182 183 185 186 187 183 176 182 194 203 210 190 189 189 191 193 193 182 184 190 181 213 204 198 217 223 213 190 185 183 179 172
174 177 174 170 168 170 171 174 178 178 180 182 183 182 185 185 182 186 186 191 194 197 193 187 186 188 188 181 165 174 156 170 214 221 183 233 223 193 190 165 163 168 157
173 169 165 163 164 168 172 175 181 183 186 183 181 184 184 181 183 190 194 188 188 190 190 183 183 189 173 159 154 166 153 163 195 226 184 237 217 185 162 157 168 166 158
162 157 159 167 172 175 175 178 185 186 183 178 180 182 181 182 188 191 189 184 183 186 184 175 176 180 171 159 159 163 165 180 193 192 185 199 159 186 195 155 151 147 139
165 163 168 176 178 181 178 177 186 184 179 177 179 183 186 186 186 183 182 181 178 177 179 171 166 166 155 150 157 158 164 170 173 174 171 174 174 188 183 153 141 133 123
171 172 175 183 187 181 177 177 179 179 177 177 183 189 186 181 177 177 177 172 168 169 166 156 154 152 147 157 162 173 173 173 168 153 159 168 151 152 156 155 151 141 138
162 164 169 172 180 183 182 179 178 179 175 180 187 183 175 174 174 172 167 163 163 161 155 160 160 160 169 165 160 162 170 176 163 145 126 122 103 115 119 124 132 147 156
153 149 155 164 178 184 176 184 184 175 174 180 183 179 175 174 173 171 162 166 166 157 155 163 159 167 180 170 163 164 166 165 163 158 159 147 116 121 122 117 110 113 140
145 145 147 146 152 160 165 171 171 169 173 175 177 178 176 175 169 164 167 171 166 162 163 168 167 162 176 172 163 153 151 144 145 153 165 161 158 149 142 127 110 101 98
134 152 147 135 127 142 163 145 151 158 165 177 181 181 176 170 168 171 176 173 161 159 155 155 153 147 155 167 164 151 134 126 113 103 126 155 168 173 148 139 138 126 81
99 115 123 113 124 145 142 137 156 162 176 185 185 179 174 169 168 172 171 164 157 159 155 152 154 155 161 169 163 154 131 132 131 82 80 144 170 167 152 151 154 163 195
92 94 104 109 141 153 128 135 157 183 185 173 169 163 165 167 162 160 161 158 155 152 155 153 153 158 167 174 171 166 154 161 162 168 189 220 176 156 154 156 167 181 166
85 93 91 72 68 95 105 120 150 184 148 143 151 156 159 164 159 157 161 158 157 157 163 159 162 180 186 184 183 176 176 170 165 186 195 199 181 163 152 158 168 157 139
79 85 99 86 67 86 113 118 119 122 121 123 147 155 159 162 160 161 162 158 160 167 175 174 183 193 188 206 197 181 182 180 169 176 174 173 167 158 162 177 166 153 143
83 76 79 82 71 70 95 126 168 143 126 139 149 143 142 144 143 148 157 164 171 176 180 189 192 186 183 198 200 188 171 161 157 147 153 153 144 118 124 149 171 171 178
97 98 101 103 93 71 70 76 104 128 122 120 122 137 154 154 151 147 155 175 190 194 186 192 191 186 196 209 194 179 178 177 170 139 111 103 111 129 162 239 250 226 181
127 118 107 102 88 76 65 48 63 118 119 118 135 154 168 169 162 152 123 57 147 168 185 190 188 193 190 179 175 177 173 164 152 137 151 176 186 194 201 207 226 230 224